#timestamp,LO_Frequency,Hit,StdDev 
1514552415.0,286047002.5,N
1514552415.9,286047002.5,N
1514552435.8,286047000.9,N
1514552455.6,286047000.7,N
1514552475.4,286047002.1,N
1514552495.3,286047001.9,N
1514552515.1,286047001.8,N
1514552535.8,286047002.0,N
1514552555.7,286047001.4,N
1514552575.5,286047003.8,N
1514552595.4,286047004.3,N
1514552615.2,286047004.0,N
1514552635.0,286047004.0,N
1514552635.9,286047004.0,N
1514552655.8,286047004.2,N
1514552675.6,286047003.7,N
1514552695.5,286047004.1,N
1514552715.3,286047003.0,N
1514552735.1,286047003.4,N
1514552755.9,286047004.8,N
1514552775.7,286047005.6,N
1514552795.5,286047003.0,N
1514552815.4,286047004.8,N
1514552835.2,286047003.8,N
1514552855.1,286047004.3,N
1514552856.0,286047004.3,N
1514552875.8,286047001.9,N
1514552895.6,286047004.1,N
1514552915.5,286047003.7,N
1514552935.3,286047003.5,N
1514552955.1,286047003.6,N
1514552975.9,286047005.3,Y
1514552995.7,286047002.2,P
1514553015.6,286047001.4,N
1514553035.4,286047001.4,N
1514553055.2,286047002.2,N
1514553075.1,286047004.1,Y
1514553076.0,286047004.1,P
1514553095.8,286047000.0,N
1514553115.7,286047000.4,N
1514553135.5,286046999.9,N
1514553155.3,286046998.1,N
1514553175.2,286047000.2,N
1514553195.0,286047000.7,N
1514553195.9,286047000.7,N
1514553215.8,286047000.7,N
1514553235.6,286047000.6,N
1514553255.4,286047000.4,N
1514553275.3,286047001.9,N
1514553295.1,286047001.9,N
1514553315.9,286047000.2,N
1514553335.7,286046999.9,N
1514553355.5,286047000.9,N
1514553375.4,286047000.6,N
1514553395.2,286047000.9,N
1514553415.0,286047002.4,N
1514553415.9,286047002.4,N
1514553435.8,286047002.4,N
1514553455.6,286047000.3,N
1514553475.5,286046999.9,N
1514553495.3,286047000.2,N
1514553515.1,286047000.6,N
1514553535.9,286046998.5,N
1514553555.7,286047001.0,N
1514553575.5,286046998.2,N
1514553595.4,286046998.2,N
1514553615.2,286046998.6,N
1514553635.1,286046999.1,N
1514553636.0,286046999.1,N
1514553655.8,286046996.5,N
1514553675.6,286046998.6,N
1514553695.5,286046999.1,N
1514553715.3,286046997.3,N
1514553735.2,286046997.6,N
1514553755.9,286046994.9,Y
1514553775.7,286046995.5,P
1514553795.6,286046996.0,N
1514553815.4,286046996.1,N
1514553835.2,286046995.0,N
1514553855.1,286046994.1,Y
1514553856.0,286046994.1,P
1514553875.8,286046999.3,N
1514553895.7,286046999.6,N
1514553915.5,286046997.5,N
1514553935.3,286046997.6,N
1514553955.2,286046995.4,N
1514553975.0,286046995.1,N
1514553975.9,286046995.1,N
1514553995.8,286046996.4,N
1514554015.6,286046996.3,N
1514554035.4,286046993.7,Y
1514554055.3,286046997.7,P
1514554075.1,286046995.5,P
1514554095.9,286046995.5,P
1514554115.7,286046996.0,Y
1514554135.5,286046996.5,P
1514554155.4,286046999.0,P
1514554175.2,286046997.8,N
1514554195.0,286046997.1,N
1514554196.0,286046997.1,Y
1514554215.8,286047000.7,P
1514554235.6,286046999.0,N
1514554255.5,286046996.6,N
1514554275.3,286046996.6,N
1514554295.1,286046997.5,N
1514554315.9,286046997.2,N
1514554335.7,286046995.4,Y
1514554355.6,286046997.1,P
1514554375.4,286046999.0,N
1514554395.2,286046999.4,N
1514554415.1,286046997.8,N
1514554416.0,286046997.8,N
1514554435.8,286046997.2,Y
1514554455.7,286046998.1,P
1514554475.5,286046999.3,P
1514554495.3,286046999.0,N
1514554515.2,286046999.3,N
1514554535.0,286046999.5,N
1514554535.9,286046999.5,N
1514554555.8,286046996.8,Y
1514554575.6,286046997.9,P
1514554595.4,286046997.5,P
1514554615.3,286046998.0,P
1514554635.1,286046995.2,Y
1514554655.8,286046996.9,P
1514554675.7,286046998.8,N
1514554695.5,286046997.0,P
1514554715.4,286046997.1,Y
1514554735.2,286046998.5,P
1514554755.0,286046996.7,P
1514554755.9,286046996.7,P
1514554775.8,286046999.1,N
1514554795.6,286046996.7,Y
1514554815.5,286046999.9,P
1514554835.3,286047001.2,N
1514554855.1,286046998.6,N
1514554875.9,286046999.6,N
1514554895.7,286046997.1,N
1514554915.5,286046996.9,N
1514554935.4,286046997.6,N
1514554955.2,286046995.2,Y
1514554975.1,286046999.1,P
1514554976.0,286046999.1,P
1514554995.8,286046999.1,P
1514555015.6,286046999.2,Y
1514555035.5,286046997.2,P
1514555055.3,286046996.2,P
1514555075.2,286046994.5,P
1514555095.9,286046990.1,Y
1514555115.7,286046993.5,P
1514555135.6,286046991.8,P
1514555155.4,286046994.1,N
1514555175.3,286046993.3,Y
1514555195.1,286046999.3,P
1514555196.0,286046999.3,N
1514555215.8,286047000.6,N
1514555235.7,286046998.6,N
1514555255.5,286046999.8,N
1514555275.4,286047000.1,N
1514555295.2,286047000.7,N
1514555315.0,286046998.1,N
1514555315.9,286046998.1,N
1514555335.8,286047002.3,N
1514555355.6,286047000.9,N
1514555375.4,286046998.3,N
1514555395.3,286046998.2,N
1514555415.1,286046999.5,N
1514555435.9,286046999.4,N
1514555455.7,286046996.6,N
1514555475.5,286046996.7,N
1514555495.4,286046997.6,N
1514555515.2,286046995.5,N
1514555535.1,286046995.7,N
1514555536.0,286046995.7,N
1514555555.8,286046993.5,Y
1514555575.6,286046997.7,P
1514555595.5,286046995.4,P
1514555615.3,286046995.1,P
1514555635.2,286046995.4,Y
1514555655.9,286046999.2,P
1514555675.7,286046997.2,N
1514555695.6,286046995.3,P
1514555715.4,286046993.6,Y
1514555735.2,286046995.5,P
1514555755.1,286046995.0,P
1514555756.0,286046995.0,P
1514555775.8,286046997.8,N
1514555795.7,286046996.7,N
1514555815.5,286046996.7,Y
1514555835.3,286047000.7,P
1514555855.2,286046999.5,N
1514555875.0,286046996.0,N
1514555875.9,286046996.0,N
1514555895.8,286046995.0,N
1514555915.6,286046995.3,N
1514555935.4,286046995.1,N
1514555955.3,286046995.4,N
1514555975.1,286046995.6,N
1514555995.8,286046996.7,N
